[[{"header":{"parameterUnit":"m.s-1","parameterCategory":1,"la1":30.2991,"la2":30.254,"lo1":-89.0895,"lo2":-89.0444,"dy":0.0017,"dx":0.0017,"nx":28,"ny":28,"refTime":"2025-04-29T03:00:00:Z","depth":0,"parameterNumber":2,"parameterNumberName":"U-component_of_WINDS"},"data":[0,0,0,0,0,0,0,0,0,0,0,0,0,0,0,0,0,0,0,0,0,0,0,0,0,0,0,0,0,0,0,0,0,0,0,0,0,0,0,0,0,0,0,0,0,0,0,0,0,0,0,0,0,0,0,0,0,0,-3.4804,-3.4804,0,-3.4821,-3.4821,-3.4821,-3.478,-3.4779,-3.4777,-3.4776,-3.4793,-3.4795,-3.4796,0,0,0,0,0,0,0,0,0,0,0,0,0,-3.4736,-3.4738,-3.4804,-3.4804,-3.4804,-3.4821,-3.4821,-3.4821,-3.478,-3.4779,-3.4777,-3.4775,-3.4793,-3.4795,-3.4797,0,0,0,0,0,0,0,0,0,0,0,0,0,-3.4761,-3.4738,-3.4804,-3.4786,-3.4784,-3.4821,-3.4821,-3.4821,-3.478,-3.4779,-3.4777,-3.4775,-3.4792,-3.4794,-3.4797,-3.4851,0,0,-3.4804,-3.4806,0,0,0,0,0,0,0,0,-3.4759,-3.4763,-3.4788,-3.4787,-3.4785,-3.4796,-3.4803,-3.4831,-3.4781,-3.4782,-3.4776,-3.4774,-3.4796,-3.4798,-3.4805,-3.4852,-3.4853,-3.4805,-3.4806,-3.4807,-3.4808,0,0,0,0,0,0,0,-3.4758,-3.4762,-3.481,-3.4789,-3.4787,-3.4777,-3.4778,-3.4809,-3.48,-3.4782,-3.4779,-3.4781,-3.4795,-3.4803,-3.4805,-3.4853,-3.4805,-3.4807,-3.4808,-3.4809,-3.4947,-3.4949,0,0,0,0,0,0,-3.4758,-3.4761,-3.481,-3.4811,-3.4767,-3.478,-3.4781,-3.4795,-3.4799,-3.4798,-3.4783,-3.4779,-3.48,-3.4802,-3.4806,-3.487,-3.4807,-3.481,-3.4811,-3.4944,-3.4947,-3.4949,0,0,0,0,0,0,-3.4757,-3.4763,-3.4809,-3.4785,-3.479,-3.4783,-3.4799,-3.4796,-3.4804,-3.48,-3.4798,-3.4793,-3.4798,-3.4802,-3.4841,-3.487,-3.4811,-3.4813,-3.4942,-3.4945,-3.4948,-3.4998,0,0,0,0,0,0,-3.4755,-3.4763,-3.4783,-3.4786,-3.4792,-3.4843,-3.48,-3.4798,-3.4809,-3.4804,-3.4809,-3.4808,-3.4797,-3.4837,-3.4843,-3.4872,-3.4815,-3.4939,-3.4943,-3.4947,-3.4994,-3.5003,-3.501,0,0,0,0,0,-3.4753,-3.4796,-3.4784,-3.479,-3.4817,-3.4845,-3.4848,-3.4835,-3.4811,-3.4832,-3.4829,-3.4808,-3.4866,-3.4841,-3.4848,-3.4878,-3.4937,-3.4942,-3.4947,-3.499,-3.5001,-3.501,0,0,0,0,0,0,-3.4796,-3.4796,-3.4783,-3.4828,-3.4837,-3.4838,-3.4863,-3.4847,-3.4862,-3.4857,-3.484,-3.4842,-3.4883,-3.4885,-3.4857,-3.4931,-3.4898,-3.4904,-3.4928,-3.4939,-3.4947,-3.4944,-3.4817,0,0,0,0,0,-3.4811,-3.4834,-3.4833,-3.4873,-3.4878,-3.4871,-3.4882,-3.4871,-3.488,-3.4883,-3.4883,-3.4892,-3.4912,-3.4926,-3.4944,-3.4995,-3.4995,-3.5019,-3.5027,-3.5034,-3.5039,-3.5066,-3.5076,-3.4965,-3.4965,-3.4965,0,0,-3.4842,-3.4845,-3.486,-3.4882,-3.4887,-3.4911,-3.4874,-3.49,-3.4918,-3.4887,-3.4922,-3.4924,-3.4933,-3.4977,-3.4997,-3.498,-3.507,-3.504,-3.5046,-3.5047,-3.5072,-3.5082,-3.5092,-3.4968,-3.4968,-3.4967,0,0,-3.491,-3.4915,-3.4949,-3.4956,-3.4965,-3.4959,-3.4968,-3.4972,-3.4971,-3.5007,-3.4985,-3.5006,-3.5041,-3.5049,-3.5057,-3.5131,-3.5111,-3.5137,-3.5179,-3.5206,-3.5214,-3.5222,-3.5248,-3.5257,-3.5143,-3.5143,-3.5143,0,-3.4947,-3.4982,-3.4968,-3.4997,-3.5007,-3.4981,-3.5016,-3.5023,-3.5038,-3.5046,-3.5027,-3.5071,-3.5076,-3.5122,-3.514,-3.5148,-3.5157,-3.5135,-3.5214,-3.5222,-3.5229,-3.5253,-3.5263,-3.5146,-3.5146,-3.5145,-3.5145,0,-3.5026,-3.5051,-3.5078,-3.5093,-3.5107,-3.5138,-3.513,-3.5146,-3.5135,-3.5132,-3.5169,-3.5174,-3.5193,-3.5204,-3.5193,-3.5249,-3.5238,-3.5217,-3.5182,-3.5243,-3.5265,-3.5274,-3.515,-3.5149,-3.5148,-3.5148,0,0,-3.5119,-3.5128,-3.5138,-3.5145,-3.5154,-3.5173,-3.5204,-3.5223,-3.5237,-3.5249,-3.5274,-3.5306,-3.5287,-3.5297,-3.5287,-3.5311,-3.5368,-3.5287,-3.5287,-3.5301,-3.543,-3.5444,-3.5455,-3.5357,-3.5359,-3.536,-3.5429,0,-3.5185,-3.5238,-3.5228,-3.5279,-3.5302,-3.5279,-3.5306,-3.5315,-3.5314,-3.5334,-3.5333,-3.5355,-3.5329,-3.5335,-3.5358,-3.5357,-3.5394,-3.5352,-3.538,-3.5381,-3.5376,-3.5466,-3.5481,-3.5545,-3.5437,-3.5439,-3.544,0,-3.5268,-3.5284,-3.5338,-3.5345,-3.5354,-3.5378,-3.5395,-3.5415,-3.5425,-3.5423,-3.5435,-3.5421,-3.5452,-3.542,-3.5462,-3.5434,-3.5446,-3.5447,-3.545,-3.545,-3.5412,-3.5468,-3.5566,-3.5575,-3.5454,-3.5453,-3.5452,0,-3.5329,-3.5364,-3.5401,-3.5408,-3.5416,-3.5434,-3.5439,-3.5447,-3.546,-3.5475,-3.5483,-3.5503,-3.5513,-3.5528,-3.552,-3.5497,-3.5565,-3.5531,-3.5563,-3.5564,-3.5576,-3.5575,-3.5676,-3.5587,-3.5587,-3.5587,-3.5587,0,-3.5403,-3.5437,-3.5428,-3.545,-3.5488,-3.5477,-3.5514,-3.5516,-3.5524,-3.5547,-3.5529,-3.5551,-3.554,-3.5562,-3.5556,-3.5592,-3.5597,-3.5596,-3.5594,-3.5597,-3.5597,-3.5602,-3.5597,-3.5589,-3.5589,-3.5588,-3.5588,0,-3.5476,-3.5472,-3.551,-3.5516,-3.5519,-3.5546,-3.5551,-3.5572,-3.5571,-3.56,-3.5606,-3.5604,-3.5628,-3.5622,-3.5649,-3.5645,-3.5691,-3.5684,-3.5687,-3.5685,-3.5716,-3.5713,-3.5822,-3.5836,-3.574,-3.5741,-3.5742,0,-3.5522,-3.5548,-3.5557,-3.5571,-3.5577,-3.56,-3.5613,-3.5604,-3.5618,-3.5633,-3.5652,-3.5675,-3.5693,-3.5733,-3.5733,-3.5754,-3.5746,-3.5784,-3.5749,-3.5751,-3.5745,-3.5743,-3.5746,-3.579,-3.5791,-3.5792,-3.5792,0,-3.5604,-3.5602,-3.5621,-3.564,-3.5656,-3.5671,-3.5684,-3.5697,-3.5689,-3.5706,-3.5731,-3.5745,-3.5773,-3.5795,-3.5815,-3.582,-3.5805,-3.5804,-3.5812,-3.5814,-3.5814,-3.5813,-3.5704,-3.58,-3.58,-3.5799,-3.5799,-3.5798,-3.5664,-3.5686,-3.5696,-3.5719,-3.5728,-3.5741,-3.5761,-3.5763,-3.5783,-3.5805,-3.5799,-3.5827,-3.5838,-3.5863,-3.5871,-3.5893,-3.5879,-3.5891,-3.5894,-3.5896,-3.59,-3.5813,-3.5897,-3.5896,-3.5896,-3.5896,-3.5896,0,-3.5745,-3.5751,-3.5772,-3.5791,-3.5809,-3.5794,-3.5809,-3.5824,-3.5849,-3.5861,-3.5879,-3.5908,-3.5931,-3.5935,-3.5956,-3.5973,-3.5967,-3.5979,-3.5977,-3.5978,-3.5912,-3.5902,-3.5984,-3.5984,-3.5984,-3.5984,-3.5984,-3.5984,-3.5788,-3.5824,-3.5823,-3.5863,-3.5869,-3.5896,-3.5906,-3.5918,-3.5927,-3.596,-3.5979,-3.5982,-3.599,-3.6013,-3.6033,-3.6034,-3.6042,-3.6057,-3.6054,-3.5992,-3.5983,-3.5974,-3.5965,-3.6059,-3.6059,-3.6119,-3.6119,-3.612]},{"header":{"parameterUnit":"m.s-1","parameterCategory":1,"la1":30.2991,"la2":30.254,"lo1":-89.0895,"lo2":-89.0444,"dy":0.0017,"dx":0.0017,"nx":28,"ny":28,"refTime":"2025-04-29T03:00:00:Z","depth":0,"parameterNumber":3,"parameterNumberName":"V-component_of_WINDS"},"data":[0,0,0,0,0,0,0,0,0,0,0,0,0,0,0,0,0,0,0,0,0,0,0,0,0,0,0,0,0,0,0,0,0,0,0,0,0,0,0,0,0,0,0,0,0,0,0,0,0,0,0,0,0,0,0,0,0,0,3.5517,3.5516,0,3.5491,3.5491,3.5491,3.5513,3.5514,3.5515,3.5516,3.5484,3.5483,3.5481,0,0,0,0,0,0,0,0,0,0,0,0,0,3.5579,3.5578,3.5517,3.5516,3.5516,3.5491,3.5491,3.5491,3.5513,3.5514,3.5516,3.5517,3.5485,3.5483,3.5481,0,0,0,0,0,0,0,0,0,0,0,0,0,3.5553,3.5577,3.5517,3.5524,3.5525,3.5492,3.5491,3.5491,3.5513,3.5514,3.5516,3.5517,3.5485,3.5483,3.548,3.5436,0,0,3.5472,3.5471,0,0,0,0,0,0,0,0,3.5554,3.555,3.5524,3.5524,3.5524,3.5507,3.5501,3.5472,3.5513,3.5517,3.5516,3.5518,3.549,3.5487,3.5479,3.5435,3.5433,3.5472,3.5471,3.547,3.5469,0,0,0,0,0,0,0,3.5556,3.5551,3.5506,3.5523,3.5524,3.5527,3.5525,3.5496,3.5496,3.5517,3.5519,3.5516,3.5491,3.5482,3.5479,3.5433,3.5472,3.547,3.5468,3.5467,3.5351,3.535,0,0,0,0,0,0,3.5558,3.5553,3.5507,3.5506,3.5543,3.5525,3.5523,3.5511,3.5496,3.5496,3.5514,3.5517,3.5486,3.5482,3.5478,3.5426,3.547,3.5467,3.5466,3.5353,3.5351,3.5349,0,0,0,0,0,0,3.5559,3.5553,3.5508,3.553,3.5524,3.5523,3.5509,3.551,3.5501,3.5495,3.5494,3.5506,3.5486,3.5481,3.5447,3.5425,3.5466,3.5464,3.5355,3.5352,3.535,3.5321,0,0,0,0,0,0,3.5561,3.5554,3.5538,3.5529,3.5523,3.5479,3.5508,3.5508,3.5497,3.55,3.5486,3.5485,3.5487,3.5451,3.5444,3.5422,3.5462,3.5357,3.5354,3.5351,3.5323,3.5317,3.5312,0,0,0,0,0,3.5563,3.5529,3.5537,3.5531,3.5504,3.5478,3.5474,3.5479,3.5495,3.5479,3.5475,3.5486,3.5428,3.5447,3.544,3.5416,3.5358,3.5354,3.5351,3.5326,3.5319,3.5313,0,0,0,0,0,0,3.5532,3.5528,3.5537,3.55,3.5489,3.5482,3.5461,3.5471,3.5454,3.5457,3.5462,3.5458,3.5422,3.5416,3.5437,3.5373,3.5396,3.5391,3.5379,3.5372,3.5366,3.5368,3.5459,0,0,0,0,0,3.5522,3.5503,3.55,3.5467,3.5462,3.5462,3.5451,3.5456,3.5445,3.544,3.5433,3.542,3.5399,3.5385,3.5366,3.5323,3.532,3.5303,3.5298,3.5293,3.5289,3.5266,3.5258,3.5338,3.5338,3.5338,0,0,3.5499,3.5494,3.5482,3.5461,3.5453,3.5433,3.5458,3.5435,3.5419,3.5435,3.5403,3.5398,3.5384,3.5345,3.5328,3.5339,3.5266,3.5289,3.5285,3.5283,3.5262,3.5254,3.5247,3.5336,3.5336,3.5337,0,0,3.5447,3.5442,3.5414,3.5407,3.5397,3.5398,3.5391,3.5383,3.538,3.5349,3.5361,3.5341,3.5305,3.5295,3.5285,3.5231,3.524,3.5224,3.5195,3.5172,3.5166,3.5161,3.5141,3.5134,3.522,3.5219,3.5219,0,3.5419,3.539,3.5398,3.5375,3.5365,3.5382,3.5354,3.5346,3.5328,3.532,3.5333,3.529,3.5281,3.5241,3.5228,3.5219,3.5211,3.5225,3.5167,3.5161,3.5156,3.5138,3.513,3.5218,3.5218,3.5218,3.5218,0,3.5356,3.5336,3.5315,3.5301,3.5289,3.5262,3.5266,3.5252,3.5259,3.5258,3.5225,3.5216,3.5195,3.5186,3.5191,3.5146,3.5154,3.5167,3.5189,3.5147,3.5129,3.5122,3.5215,3.5216,3.5216,3.5217,0,0,3.5283,3.5275,3.5267,3.5262,3.5252,3.5235,3.521,3.5192,3.518,3.5168,3.5146,3.5116,3.5129,3.5118,3.5121,3.5102,3.506,3.5117,3.5117,3.5107,3.501,3.5,3.4992,3.5066,3.5065,3.5064,3.5011,0,3.523,3.5189,3.5196,3.5155,3.5136,3.5153,3.513,3.5121,3.512,3.5103,3.51,3.5079,3.5098,3.5091,3.5073,3.5069,3.504,3.5073,3.5045,3.5044,3.5048,3.4983,3.4972,3.4923,3.5005,3.5004,3.5003,0,3.5163,3.5151,3.5109,3.5104,3.5096,3.5076,3.5061,3.5044,3.5034,3.5035,3.5023,3.5031,3.5004,3.5028,3.4991,3.5013,3.5002,3.4999,3.4997,3.4994,3.502,3.4978,3.4907,3.49,3.4992,3.4993,3.4994,0,3.5114,3.5087,3.5059,3.5053,3.5046,3.5032,3.5028,3.5019,3.5008,3.4994,3.4987,3.4969,3.4959,3.4945,3.4947,3.4964,3.4909,3.4933,3.4908,3.4908,3.4895,3.4896,3.4821,3.4888,3.4889,3.4889,3.4889,0,3.5055,3.5028,3.5037,3.5019,3.499,3.4998,3.4968,3.4966,3.4958,3.4939,3.4952,3.4933,3.4938,3.4919,3.4921,3.489,3.4885,3.4884,3.4885,3.4883,3.4883,3.4875,3.4878,3.4887,3.4887,3.4888,3.4888,0,3.4994,3.4999,3.4969,3.4966,3.4965,3.4943,3.4939,3.4922,3.4923,3.4899,3.4893,3.4893,3.4872,3.4874,3.4849,3.485,3.4812,3.4817,3.4816,3.4817,3.4792,3.4794,3.471,3.4699,3.4773,3.4773,3.4772,0,3.4956,3.4936,3.4932,3.4921,3.4917,3.4899,3.4889,3.4897,3.4885,3.4873,3.4857,3.4838,3.4822,3.4788,3.4784,3.4766,3.477,3.4742,3.4767,3.4766,3.4769,3.477,3.4768,3.4736,3.4735,3.4735,3.4734,0,3.4887,3.4891,3.4877,3.4864,3.4852,3.4841,3.4832,3.4822,3.4828,3.4814,3.4795,3.4783,3.476,3.474,3.4722,3.4716,3.4726,3.4727,3.472,3.4717,3.4718,3.4717,3.4802,3.4728,3.4729,3.4729,3.473,3.473,3.4836,3.482,3.4815,3.4799,3.4793,3.4784,3.4768,3.4768,3.4752,3.4735,3.474,3.4717,3.4708,3.4686,3.4679,3.466,3.467,3.466,3.4657,3.4655,3.4652,3.4722,3.4657,3.4657,3.4657,3.4657,3.4657,0,3.4768,3.4766,3.4752,3.4739,3.4726,3.4739,3.473,3.4717,3.4698,3.469,3.4675,3.4652,3.4634,3.463,3.4612,3.4598,3.4601,3.4592,3.4593,3.4592,3.4644,3.4652,3.459,3.459,3.459,3.459,3.459,3.459,3.4731,3.4705,3.4708,3.4678,3.4676,3.4656,3.4649,3.4641,3.4634,3.4609,3.4594,3.4593,3.4586,3.4568,3.4551,3.455,3.4542,3.4532,3.4532,3.4581,3.4588,3.4594,3.4602,3.453,3.453,3.4482,3.4481,3.4481]}]]